{"data":{"norad_id":58662,"intl_designator":"2023-208C","name":"TIANMU-1 21","alt_names":[],"object_type":"PAYLOAD","status":"ACTIVE","operator":null,"country":"PRC","launch_date":"2023-12-27","launch_site_code":"JSC","launch_vehicle":null,"mission":null,"orbit_class":"UNKNOWN","rcs_meters":null,"size_class":null,"mass_kg":null,"dimensions":null,"purposes":["earth_obs"],"wikipedia_slug":null,"has_3d_model":false,"image_url":null,"decayed_at":null,"tle_current":{"epoch":"2026-09-19T21:55:42.372768Z","epoch_age_seconds":65181,"freshness":"FRESH","line1":"1 58662U 23208C   26262.91368487  .00006867  00000+0  19432-3 0  9994","line2":"2 58662  97.4584  23.6757 0006298 348.8481  11.2622 15.36615825152102","mean_motion":15.36615825,"eccentricity":0.0006298,"inclination_deg":97.4584,"raan_deg":23.6757,"arg_perigee_deg":348.8481,"mean_anomaly_deg":11.2622,"bstar":0.00019432,"rev_number":15210,"period_min":93.712428088524,"perigee_km":451.82103838686,"apogee_km":460.42947512547,"semimajor_km":6834.2622567562,"source":"CELESTRAK","updated_at":"2026-09-20T09:00:33.255316Z"}}}